Location: Blackrock Ranger Station
(36.0936°N, 118.2611°W)
Time: 08:43:00
(UTC-07:00)

AO-7 - Pass Details

Date: 25 February 2026
Orbit: 1440 x 1458 km, 102.0° (Epoch: 15 March)

Event Time Altitude Azimuth Distance (km) Brightness Sun altitude
Rises 19:09:27 0° 210° (SSW) 4,515 ? -17.9°
Reaches altitude 10° 19:13:31 10° 229° (SW) 3,543 ? -18.8°
Maximum altitude 19:18:30 17° 267° (W) 3,023 ? -19.8°
Drops below altitude 10° 19:23:31 10° 305° (NW) 3,560 ? -20.8°
Sets 19:27:42 0° 325° (NW) 4,547 ? -21.6°
